Other Public Products
Issued by NWS Grand Forks, ND

Home | Current Version | Previous Version | Text Only | Print | Product List | Glossary On
Versions: 1 2 3 4 5 6 7 8 9 10 11 12 13 14 15 16 17 18 19 20 21 22 23 24 25 26 27 28 29 30 31 32 33 34 35 36 37 38 39 40 41 42 43 44 45 46 47 48 49 50
000
FPUS83 KFGF 011110
OPUFGF
PRAIRIE TO PINES WEATHER ROUNDUP
NATIONAL WEATHER SERVICE EASTERN NORTH DAKOTA/GRAND FORKS ND
500 AM CST SUN MAR 01 2015

 **SATELLITE DATA USED TO AUGMENT SKY COVER AT AUTOMATED STATIONS**
 *****  WEATHER ACROSS EASTERN NORTH DAKOTA  *****

CITY           SKY/WX    TMP DP  RH WIND       PRES   REMARKS
GRAND FORKS    CLEAR      2  -4  76 SW10      30.15S WCI -14
GRAND FORKS AF CLEAR      2  -4  74 W10       30.14S WCI -14
GRAND CITY NWS   N/A      1 N/A N/A W10         N/A  WCI -14
BUXTON         NOT AVBL
DEVILS LAKE    CLEAR      1  -6  71 W10       30.10R WCI -14
FARGO          CLEAR      0  -5  79 SW10      30.21S WCI -16
WAHPETON ARPT  SUNNY      1  -4  78 W8        30.23F WCI -12
$$

 *****  WEATHER ACROSS CENTRAL AND WESTERN NORTH DAKOTA  *****

CITY           SKY/WX    TMP DP  RH WIND       PRES   REMARKS
JAMESTOWN      CLEAR      4  -2  76 W9        30.14S WCI -10
BISMARCK       CLOUDY     6   1  80 SW3       30.18S
MINOT          MOCLDY    10   2  69 SW16      30.09S WCI  -7
MINOT AFB      CLEAR      7   2  83 W15       30.09S WCI -11
GARRISON         N/A      6   1  80 W9        30.11S WCI  -8
WILLISTON      CLOUDY    11   7  84 SE3       30.15R
DICKINSON      MOCLDY    12   7  80 W14       30.10S WCI  -3
HETTINGER      CLOUDY     9   5  84 W7        30.15S WCI  -2
$$

 *****  OTHER OBSERVATIONS NORTHEAST NORTH DAKOTA  *****

CITY           SKY/WX    TMP DP  RH WIND       PRES   REMARKS
WALHALLA         N/A      7   1  78 W10G17    30.08R WCI  -8
LANGDON        NOT AVBL
CAVALIER       FAIR       5   0  78 W8        30.10S WCI  -8
GRAFTON        NOT AVBL
CANDO          CLOUDY     0  -2  92 W13       30.09S WCI -18
FORT TOTTEN      N/A      0  -6  74 S3        29.95S
ROLLA          CLOUDY     7   3  85 SW7       30.04R WCI  -5
RUGBY          FAIR      -2  -8  78 W6        30.09S WCI -14
 ***** THE ABOVE OBSERVATIONS ARE NON NWS ARE NOT QUALITY
        CONTROLLED AND MAY MIS-REPORT RAIN FOR SNOW...
$$

 *****  OTHER OBSERVATIONS SOUTHEAST NORTH DAKOTA *****

CITY           SKY/WX    TMP DP  RH WIND       PRES   REMARKS
COOPERSTOWN    NOT AVBL
VALLEY CITY    FAIR       1  -2  85 W10       30.15F WCI -14
OAKES            N/A      1  -2  85 SW7       30.20S WCI -11
GWINNER        SUNNY      5   0  78 SW9       30.21F WCI  -9
BUFFALO        NOT AVBL
WYNDMERE         N/A      3  -2  78 SW6         N/A  WCI  -8
 ***** THE ABOVE OBSERVATIONS ARE NON NWS ARE NOT QUALITY
       CONTROLLED AND MAY MIS-REPORT RAIN FOR SNOW...
$$

  *****  WEATHER ACROSS NORTHERN MINNESOTA  *****

CITY           SKY/WX    TMP DP  RH WIND       PRES   REMARKS
FLAG ISLAND    CLEAR     -4  -8  84 S5        30.04S WCI -15
WARROAD        CLEAR     -2  -6  84 SW8       30.06F WCI -17
ROSEAU         CLEAR     -2  -8  78 SW10      30.07F WCI -19
HALLOCK        NOT AVBL
THF RVR FALLS  CLEAR     -2  -9  71 SW8       30.12S WCI -17
HALSTAD        NOT AVBL
FOSSTON        PTCLDY    -9 -15  77 S8        30.14S WCI -26
BAUDETTE       CLEAR     -3  -7  82 S5        30.06S WCI -13
WASKISH        CLEAR      3   0  85 CALM      30.09F
CROOKSTON      CLEAR     -6  -9  84 S8        30.17S WCI -21
$$
  *****  WEATHER ACROSS CENTRAL AND WEST MINNESOTA  *****

CITY           SKY/WX    TMP DP  RH WIND       PRES   REMARKS
BEMIDJI        CLEAR      1  -2  85 SW6       30.11S WCI -10
PARK RAPIDS    FAIR      -3  -8  79 W5        30.13S WCI -13
WADENA         CLEAR      1  -2  85 W7        30.16S WCI -11
DETROIT LAKES  PTCLDY     1   0  92 SW6       30.16F WCI -10
MOORHEAD       PTCLDY     1   0  92 SW6       30.21S WCI -10
FERGUS FALLS   PTCLDY    -2  -8  78 W6        30.26  WCI -14
ELBOW LAKE     FAIR       0  -3  85 W7        30.21S WCI -13
MORRIS MN      CLEAR      3   0  85 W7        30.22S WCI  -9
STAPLES        PTCLDY     0  -4  85 W6        30.16S WCI -12
WHEATON        NOT AVBL
$$
  *****  WEATHER ELSEWHERE ACROSS MINNESOTA  *****

CITY           SKY/WX    TMP DP  RH WIND       PRES   REMARKS
DULUTH         LGT SNOW  11   6  81 SW12      30.11F WCI  -3
INTRNTL FALLS  PTCLDY     7   2  80 W9        30.06S WCI  -7
ELY            NOT AVBL
CLOQUET        FLURRIES  10   7  85 SW7       30.13F WCI   0
BRAINERD       CLOUDY    14  11  87 NW12      30.15R FOG     WCI   0
HIBBING        LGT SNOW  13   8  81 SW6       30.08F WCI   4
ALEXANDRIA     CLEAR      5   0  79 W13       30.18S WCI -12
SAINT CLOUD    CLOUDY    15  11  83 S7        30.19R WCI   5
MINNEAPOLIS    CLOUDY    16  10  77 SW14G20   30.24S WCI   2
$$

  *****  WEATHER ACROSS SOUTH DAKOTA  *****

CITY           SKY/WX    TMP DP  RH WIND       PRES   REMARKS
SIOUX FALLS    MOCLDY    12   8  84 CALM      30.27R
BROOKINGS      NOT AVBL
WATERTOWN      PTCLDY     2  -3  80 W6        30.20S WCI  -9
HURON          PTCLDY     3  -1  83 SW3       30.29R
SISSETON       NOT AVBL
ABERDEEN       PTCLDY     1  -4  79 S7        30.24R WCI -12
MITCHELL       CLEAR     11   6  81 SW6       30.30R WCI   1
PIERRE         MOCLDY    13   4  67 W12       30.25R WCI  -1
MOBRIDGE       PTCLDY     2  -1  88 CALM      30.18S
RAPID CITY     PTCLDY    11   7  84 W3        30.20R
$$

  *****  SOME WEATHER IN NEARBY STATES *****

CITY           SKY/WX    TMP DP  RH WIND       PRES   REMARKS
GLASGOW MT     CLOUDY    12   8  84 W7        30.19R FOG     WCI   1
GREAT FALLS MT CLOUDY    17   8  67 SW12      30.24F WCI   4
CHEYENNE WY    PTCLDY    12   8  84 NW8       30.02S WCI   0
SCOTTSBLUFF NE CLOUDY    19  10  68 N8        30.16R WCI   9
OMAHA NE       MOCLDY    20  13  74 W5        30.35R WCI  13
DES MOINES IA  FLURRIES  21  16  81 W3        30.33S
DAVENPORT IA   CLOUDY    11   7  84 CALM      30.38S FOG
CHICAGO IL     CLOUDY    14  10  84 CALM      30.38S FOG
EAU CLAIRE WI  CLOUDY    13   7  77 S8        30.26F WCI   2
LA CROSSE WI   PTCLDY    10   5  80 S3        30.34F
$$

  *****  SOME NATIONAL WEATHER *****

CITY           SKY/WX    TMP DP  RH WIND       PRES   REMARKS
LA GUARDIA NY  CLOUDY    26   6  42 CALM      30.69S
RALEIGH NC     FRZ RAIN  29  23  78 N5        30.61R FOG     WCI  24
ATLANTA GA     DRIZZLE   37  34  89 E12       30.49R FOG
NEW ORLEANS LA FOG       57  55  93 E8        30.29R VSB 1/4
OKLAHOMA CITY  FRZ DRZL  29  25  85 CALM      30.30F FOG
ALBUQUERQUE NM LGT RAIN  34  31  88 E6        30.03F
SALT LAKE CITY CLOUDY    33  31  92 S5        29.99R
LOS ANGELES CA MOCLDY    53  48  83 NE5       29.92S
BOISE ID       MOCLDY    28  21  75 CALM      30.11R
SEATTLE WA     PTCLDY    37  29  72 SE8       30.24F
$$

*** WEATHER ACROSS MANITOBA...SASKATCHEWAN AND ONTARIO ***
                ***ONTARIO***

CITY           SKY/WX    TMP DP  RH WIND       PRES   REMARKS
GERALDTON      PTCLDY    10   7  85 SW8       30.01F WCI  -1
THUNDER BAY    FLURRIES  14   7  73 W6        30.11F WCI   5
SIOUX LOOKOUT  FLURRIES  14  10  85 SW5       29.95R WCI   6
TORONTO        CLOUDY    14   7  73 VRB2      30.46F
BIG TROUT LK   FLURRIES   7   3  85 W7        29.80S WCI  -5
PICKLE LAKE    LGT SNOW  14   9  79 SW8       29.86  WCI   3
DRYDEN         FLURRIES  14  10  85 W15       29.96R WCI  -1
KENORA         CRYSTALS  -2  -6  84 W8        30.00S WCI -17
$$
                *** MANITOBA***

CITY           SKY/WX    TMP DP  RH WIND       PRES   REMARKS
BRANDON        FLURRIES   0  -6  78 W13       30.06R WCI -18
DAUPHIN        FLURRIES   9   3  78 W13       30.08R WCI  -7
ISLAND LAKE    FLURRIES   1  -2  85 W6        29.91R WCI -10
PILOT MOUND      N/A      3   0  85 W6          N/A  WCI  -8
THE PAS        FLURRIES   7   1  78 N5        30.07R WCI  -2
THOMPSON       CLEAR     -9 -15  77 W7        30.00R WCI -24
WINNIPEG       MOCLDY     0  -6  78 W7        30.08R WCI -13
LYNN LAKE      CLEAR    -11 -17  77 W7        30.01R WCI -26
CHURCHILL      MOCLDY   -15 -22  70 NW18G26   29.88S WCI -41
GILLAM         CLEAR    -11 -18  70 W8        29.93S WCI -28
$$
                ***SASKATCHEWAN***

CITY           SKY/WX    TMP DP  RH WIND       PRES   REMARKS
ESTEVAN        PTCLDY     5   1  85 W12       30.11R FOG     WCI -11
KINDERSLEY     PTCLDY     3   0  85 NW8       30.20F WCI -10
LLOYDMINSTER   CLEAR      3   1  92 W12       30.17F WCI -13
PRINCE ALBERT  FLURRIES   7   3  85 W6        30.14S WCI  -3
REGINA         CLOUDY     1   0  92 NW6       30.14R WCI -10
YORKTON        FLURRIES   7   3  85 W10       30.08R WCI  -8



USA.gov is the U.S. government's official web portal to all federal, state and local government web resources and services.